Date,TemperatureHighF,TemperatureAvgF,TemperatureLowF,DewpointHighF,DewpointAvgF,DewpointLowF,HumidityHigh,HumidityAvg,HumidityLow,PressureMaxIn,PressureMinIn,WindSpeedMaxMPH,WindSpeedAvgMPH,GustSpeedMaxMPH,PrecipitationSumIn
2013-2-1,26.3,18.6,10.1,11.0,1.8,-4.1,56,47,42,29.96,29.36,31,10,31,0.00
2013-2-2,22.1,15.4,7.6,8.7,0.2,-6.8,72,51,38,30.11,29.95,26,5,27,0.00
2013-2-3,28.0,19.5,11.6,16.9,10.9,6.1,80,69,52,29.99,29.64,9,0,9,0.00
2013-2-4,24.0,17.2,9.1,12.8,2.7,-13.1,81,55,31,29.77,29.56,25,7,25,0.00
2013-2-5,20.4,10.5,-0.2,2.5,-7.5,-13.3,67,45,27,29.96,29.77,14,3,14,0.00
2013-2-6,30.7,17.2,8.4,20.3,3.7,-8.9,75,56,28,30.21,29.86,22,5,22,0.00
2013-2-7,15.5,7.8,2.7,-6.9,-12.9,-17.2,57,38,25,30.52,30.21,20,5,20,0.00
2013-2-8,11.3,7.5,3.8,5.7,-2.2,-13.0,82,65,41,30.52,29.96,10,3,10,0.00
2013-2-9,16.0,11.4,7.9,7.6,5.5,3.4,84,77,64,30.07,29.76,32,10,32,0.00
2013-2-10,35.7,21.8,10.8,11.2,2.5,-3.6,64,44,26,30.29,30.07,17,4,17,0.09
2013-2-11,26.7,17.5,6.9,25.1,11.7,-1.8,95,78,57,30.28,29.52,4,0,4,0.00
2013-2-12,39.5,32.6,23.7,35.8,27.6,22.1,100,83,64,29.69,29.46,23,5,23,0.28
2013-2-13,39.8,34.1,27.0,25.9,21.2,18.1,73,59,44,29.73,29.67,21,5,21,0.04
2013-2-14,37.4,29.7,22.6,21.9,18.6,15.7,80,64,46,29.94,29.67,13,2,13,0.02
2013-2-15,44.3,30.9,19.8,30.3,23.4,14.8,92,74,54,29.94,29.84,15,2,15,0.01
2013-2-16,31.6,29.3,23.4,28.5,24.3,9.6,93,82,56,29.91,29.76,12,2,12,0.08
2013-2-17,23.4,19.3,14.8,15.5,9.7,1.8,87,66,54,29.76,29.15,32,14,32,0.00
2013-2-18,25.5,17.1,10.3,23.9,2.6,-5.0,100,55,35,29.93,29.35,33,18,33,0.00
2013-2-19,39.9,27.6,12.7,30.6,8.3,-4.9,94,47,22,30.03,29.56,14,3,14,0.40
2013-2-20,34.9,30.6,25.0,34.4,23.3,15.1,98,75,58,29.56,29.34,21,6,21,0.37
2013-2-21,29.7,23.3,14.7,22.6,14.2,3.0,76,68,57,30.11,29.53,22,8,22,0.00
2013-2-22,35.6,28.6,21.9,24.3,20.5,17.3,85,72,53,30.34,30.11,14,4,14,0.00
2013-2-23,30.7,26.4,20.1,30.7,24.7,17.4,100,93,84,30.31,29.99,10,1,10,0.00
2013-2-24,28.7,27.3,25.4,28.7,27.3,25.4,100,100,100,29.99,29.77,9,1,9,0.00
2013-2-25,38.3,29.9,24.3,30.8,27.0,24.0,100,90,70,30.20,29.86,12,1,12,0.56
2013-2-26,41.1,33.3,25.6,32.0,26.7,22.4,95,78,57,30.31,30.20,8,1,8,0.01
2013-2-27,37.2,29.8,23.3,30.7,26.2,21.1,98,87,61,30.23,29.70,21,3,21,0.00
2013-2-28,35.2,30.9,28.6,35.1,30.8,27.9,100,100,97,29.70,29.53,9,2,9,0.18